Current weather by "City, St" or "zip code"  
 

Current Conditions: Emporia, Emporia Municipal Airport, KS

Overcast


38.0 F

Last Updated on Oct 24 2020, 10:53 am CDT
Humidity: 70%
Wind Speed: E 10.4 mph
Barometer 30.22 in
Dewpoint: 28.9 F
Visibility: 10.00 mi
Precip: --
Heat Index: NA
Wind Chill: 31 F
Current conditions at:

Emporia, Emporia Municipal Airport, KS (KEMP)

Lat: 38.32889 Lon: 96.19389

Local Radar Image active severe weather and emergency alerts image image weather storm and storm spotter reports image weather observation monitoring service image
Local
Radar
Active
Alerts
Storm Reports Obs
Monitoring

Sign-up For Email & Text Message Weather Alert Notification Services



Advertise Here

Observation History for Emporia, Emporia Municipal Airport, KS


Time Wind
(mph)
Vis
(mi)
Weather Precip (in) Temperature (F) Relative
Humidity
Wind
Chill
(F)
Heat
Index
(F)
Pressure
Air Dwpt altimeter
(in)
sea level
(mb)
Rmks
10:53 am CDT E 10.4 10.00 Overcast -- 38.0 28.9 70% 31 NA 30.22 1024.2
9:53 am CDT E 6.9 10.00 Overcast -- 37.0 28.9 73% 32 NA 30.23 1024.8
8:53 am CDT E 8.1 10.00 Overcast -- 36.0 28.9 76% 30 NA 30.23 1024.8
7:53 am CDT NE 6.9 10.00 Overcast -- 36.0 28.9 76% 30 NA 30.24 1024.9
6:53 am CDT E 8.1 10.00 Overcast -- 36.0 28.9 76% 30 NA 30.25 1025.3
5:53 am CDT E 9.2 10.00 Overcast -- 36.0 28.0 73% 29 NA 30.26 1025.7
4:53 am CDT NE 5.8 10.00 Overcast -- 36.0 28.0 73% 31 NA 30.28 1026.4
3:53 am CDT NE 10.4 10.00 Overcast -- 36.0 27.0 70% 28 NA 30.30 1027.0
2:53 am CDT E 10.4 10.00 Overcast -- 36.0 28.0 73% 28 NA 30.32 1027.7
1:53 am CDT NE 10.4 10.00 Overcast -- 36.0 27.0 70% 28 NA 30.33 1028.0
12:53 am CDT N 12.7 G 19.6 10.00 Overcast -- 37.0 28.9 73% 29 NA 30.34 1028.2
11:53 pm CDT N 13.8 10.00 Overcast -- 38.0 28.0 68% 30 NA 30.36 1029.1
10:53 pm CDT N 12.7 10.00 Overcast -- 39.0 30.0 70% 31 NA 30.36 1029.1
9:53 pm CDT N 10.4 G 20.7 10.00 Overcast -- 39.0 28.9 67% 32 NA 30.37 1029.3
8:53 pm CDT N 13.8 10.00 Overcast -- 40.0 28.9 65% 32 NA 30.36 1029.2
7:53 pm CDT N 10.4 10.00 Overcast -- 41.0 30.0 65% 35 NA 30.36 1029.0
6:53 pm CDT N 12.7 10.00 Overcast -- 41.0 30.0 65% 34 NA 30.34 1028.3
5:53 pm CDT N 17.3 10.00 Overcast -- 42.0 30.0 62% 34 NA 30.34 1028.2
4:53 pm CDT N 15.0 G 24.2 10.00 Overcast -- 42.0 30.9 65% 34 NA 30.33 1027.9
3:53 pm CDT N 15.0 G 28.8 10.00 Overcast -- 43.0 32.0 65% 36 NA 30.31 1027.3
2:53 pm CDT N 18.4 G 27.6 10.00 Overcast -- 43.0 32.0 65% 35 NA 30.31 1027.2
1:53 pm CDT N 17.3 G 27.6 10.00 Overcast -- 43.0 33.1 68% 35 NA 30.32 1027.5
12:53 pm CDT N 13.8 G 25.3 10.00 Overcast -- 42.0 33.1 71% 35 NA 30.33 1027.9
11:53 am CDT N 15.0 G 36.8 10.00 Overcast -- 42.0 34.0 73% 34 NA 30.32 1027.5

Regional Weather Observation


Topeka, Forbes Field, KS (KFOE)

Overcast
38.0 F

Fort Riley - Marshall AAF, KS (KFRI)

Overcast
37.0 F

Manhattan, Manhattan Municipal Airport, KS (KMHK)

Overcast
36.0 F

Newton, Newton City/County Airport, KS (KEWK)

Overcast
34.0 F

Salina, Salina Municipal Airport, KS (KSLN)

Overcast
36.0 F

Topeka, Philip Billard Municipal Airport, KS (KTOP)

Overcast
38.0 F